When you browse on this site, cookies collect data to enhance your experience and personalize the content and advertising you see.
Visit our Privacy Policy to learn more. By continuing to use the site, you agree to this use of cookies and data.
  • In Hungary
  • List of Countries
  • For 7 days
  • Water Temperature
  • Satellite Maps
  • Weather Map
  • News
  • Weather Widgets
  • user-avatar
    Login

    Hourly Weather Corozal

    Today, 14 December, Friday

    Time Temperature Precipitation Wind Pressure Humidity
    00:00 +25°C° 0 mm 3 mps 759 mmHg 95%
    01:00 +25°C° 0 mm 3 mps 758 mmHg 95%
    02:00 +25°C° 0 mm 2 mps 758 mmHg 96%
    03:00 +25°C° 0 mm 2 mps 758 mmHg 96%
    04:00 +25°C° 0 mm 2 mps 758 mmHg 96%
    05:00 +24°C° 0 mm 2 mps 758 mmHg 97%
    06:00 +24°C° 0 mm 2 mps 759 mmHg 97%
    07:00 +26°C° 0 mm 2 mps 759 mmHg 90%
    08:00 +28°C° 0 mm 3 mps 760 mmHg 82%
    09:00 +30°C° 0 mm 3 mps 760 mmHg 75%
    10:00 +31°C° 0 mm 3 mps 760 mmHg 71%
    11:00 +31°C° 0 mm 3 mps 760 mmHg 67%
    12:00 +33°C° 0 mm 3 mps 760 mmHg 63%
    13:00 +32°C° 0.2 mm 2 mps 759 mmHg 65%
    14:00 +32°C° 0.2 mm 2 mps 759 mmHg 67%
    15:00 +31°C° 0.2 mm 2 mps 758 mmHg 69%
    16:00 +29°C° 0.7 mm 2 mps 759 mmHg 77%
    17:00 +27°C° 0.7 mm 1 mps 759 mmHg 85%
    18:00 +25°C° 0.7 mm 1 mps 760 mmHg 93%
    19:00 +25°C° 0.3 mm 2 mps 760 mmHg 94%
    20:00 +24°C° 0.3 mm 2 mps 761 mmHg 95%
    21:00 +24°C° 0.3 mm 3 mps 762 mmHg 96%
    22:00 +22°C° 0.2 mm 3 mps 762 mmHg 95%
    23:00 +22°C° 0.2 mm 4 mps 763 mmHg 94%

    Tomorrow, 15 December, Saturday

    Time Temperature Precipitation Wind Pressure Humidity
    00:00 +21°C° 0.2 mm 4 mps 763 mmHg 94%
    01:00 +21°C° 0 mm 4 mps 763 mmHg 92%
    02:00 +21°C° 0 mm 4 mps 763 mmHg 90%
    03:00 +20°C° 0 mm 4 mps 763 mmHg 89%
    04:00 +20°C° 0 mm 4 mps 763 mmHg 87%
    05:00 +20°C° 0 mm 3 mps 763 mmHg 84%
    06:00 +20°C° 0 mm 3 mps 764 mmHg 82%
    07:00 +21°C° 0 mm 3 mps 764 mmHg 76%
    08:00 +22°C° 0 mm 3 mps 765 mmHg 69%
    09:00 +23°C° 0 mm 4 mps 765 mmHg 63%
    10:00 +25°C° 0 mm 3 mps 765 mmHg 58%
    11:00 +27°C° 0 mm 3 mps 765 mmHg 53%
    12:00 +28°C° 0 mm 3 mps 765 mmHg 49%
    13:00 +28°C° 0 mm 3 mps 764 mmHg 48%
    14:00 +29°C° 0 mm 3 mps 763 mmHg 48%
    15:00 +29°C° 0 mm 3 mps 763 mmHg 48%
    16:00 +27°C° 0 mm 2 mps 763 mmHg 55%
    17:00 +26°C° 0 mm 2 mps 763 mmHg 61%
    18:00 +24°C° 0 mm 1 mps 764 mmHg 68%
    19:00 +23°C° 0 mm 2 mps 764 mmHg 70%
    20:00 +23°C° 0 mm 2 mps 765 mmHg 72%
    21:00 +21°C° 0 mm 2 mps 766 mmHg 74%
    22:00 +21°C° 0 mm 2 mps 766 mmHg 75%
    23:00 +20°C° 0 mm 2 mps 766 mmHg 76%

    Day after tomorrow, 16 December, Sunday

    Time Temperature Precipitation Wind Pressure Humidity
    00:00 +20°C° 0 mm 2 mps 766 mmHg 77%
    01:00 +19°C° 0 mm 2 mps 765 mmHg 80%
    02:00 +18°C° 0 mm 2 mps 765 mmHg 83%
    03:00 +18°C° 0 mm 2 mps 765 mmHg 85%
    04:00 +18°C° 0 mm 2 mps 765 mmHg 86%
    05:00 +17°C° 0 mm 2 mps 765 mmHg 86%
    06:00 +17°C° 0 mm 3 mps 766 mmHg 86%
    07:00 +19°C° 0 mm 3 mps 766 mmHg 79%
    08:00 +20°C° 0 mm 3 mps 767 mmHg 73%
    09:00 +22°C° 0 mm 3 mps 767 mmHg 66%
    10:00 +24°C° 0 mm 3 mps 767 mmHg 60%
    11:00 +26°C° 0 mm 2 mps 766 mmHg 55%
    12:00 +28°C° 0 mm 2 mps 765 mmHg 49%
    13:00 +28°C° 0 mm 2 mps 764 mmHg 48%
    14:00 +28°C° 0 mm 2 mps 764 mmHg 47%
    15:00 +29°C° 0 mm 2 mps 763 mmHg 47%
    16:00 +27°C° 0 mm 2 mps 763 mmHg 54%
    17:00 +25°C° 0 mm 1 mps 763 mmHg 60%
    18:00 +23°C° 0 mm 1 mps 763 mmHg 67%
    19:00 +23°C° 0 mm 1 mps 764 mmHg 68%
    20:00 +23°C° 0 mm 1 mps 764 mmHg 68%
    21:00 +23°C° 0 mm 1 mps 765 mmHg 69%
    22:00 +21°C° 0 mm 2 mps 765 mmHg 71%
    23:00 +21°C° 0 mm 2 mps 765 mmHg 73%

    17 December, Monday

    Time Temperature Precipitation Wind Pressure Humidity
    00:00 +20°C° 0 mm 2 mps 764 mmHg 76%
    01:00 +20°C° 0 mm 3 mps 764 mmHg 78%
    02:00 +19°C° 0 mm 3 mps 764 mmHg 80%
    03:00 +19°C° 0 mm 3 mps 763 mmHg 82%
    04:00 +19°C° 0 mm 3 mps 764 mmHg 83%
    05:00 +18°C° 0 mm 3 mps 764 mmHg 84%
    06:00 +18°C° 0 mm 3 mps 764 mmHg 85%
    07:00 +20°C° 0 mm 3 mps 765 mmHg 78%
    08:00 +21°C° 0 mm 3 mps 765 mmHg 71%
    09:00 +24°C° 0 mm 3 mps 766 mmHg 64%
    10:00 +25°C° 0 mm 3 mps 765 mmHg 59%
    11:00 +27°C° 0 mm 3 mps 764 mmHg 55%
    12:00 +28°C° 0 mm 3 mps 764 mmHg 50%
    13:00 +28°C° 0 mm 3 mps 763 mmHg 50%
    14:00 +28°C° 0 mm 2 mps 762 mmHg 51%
    15:00 +28°C° 0 mm 2 mps 762 mmHg 52%
    16:00 +27°C° 0 mm 2 mps 762 mmHg 56%
    17:00 +26°C° 0 mm 2 mps 762 mmHg 61%
    18:00 +25°C° 0 mm 2 mps 763 mmHg 66%
    19:00 +24°C° 0 mm 2 mps 763 mmHg 68%
    20:00 +24°C° 0 mm 2 mps 764 mmHg 70%
    21:00 +23°C° 0 mm 2 mps 764 mmHg 72%
    22:00 +21°C° 0 mm 2 mps 764 mmHg 74%
    23:00 +21°C° 0 mm 2 mps 763 mmHg 77%

    18 December, Tuesday

    Time Temperature Precipitation Wind Pressure Humidity
    00:00 +20°C° 0 mm 2 mps 763 mmHg 79%
    01:00 +20°C° 0 mm 2 mps 763 mmHg 80%
    02:00 +20°C° 0 mm 2 mps 762 mmHg 81%
    03:00 +20°C° 0 mm 2 mps 762 mmHg 82%
    04:00 +20°C° 0 mm 2 mps 762 mmHg 82%
    05:00 +20°C° 0 mm 2 mps 762 mmHg 82%
    06:00 +20°C° 0 mm 2 mps 763 mmHg 82%
    07:00 +21°C° 0 mm 2 mps 763 mmHg 78%
    08:00 +23°C° 0 mm 2 mps 763 mmHg 74%
    09:00 +24°C° 0 mm 2 mps 764 mmHg 70%
    10:00 +26°C° 0 mm 2 mps 763 mmHg 64%
    11:00 +28°C° 0 mm 2 mps 762 mmHg 57%
    12:00 +30°C° 0 mm 2 mps 762 mmHg 50%
    13:00 +30°C° 0 mm 2 mps 761 mmHg 51%
    14:00 +30°C° 0 mm 1 mps 761 mmHg 52%
    15:00 +30°C° 0 mm 1 mps 760 mmHg 53%
    16:00 +28°C° 0 mm 1 mps 760 mmHg 59%
    17:00 +27°C° 0 mm 1 mps 760 mmHg 65%
    18:00 +25°C° 0 mm 1 mps 761 mmHg 72%
    19:00 +25°C° 0 mm 1 mps 761 mmHg 74%
    20:00 +24°C° 0 mm 1 mps 761 mmHg 76%
    21:00 +24°C° 0 mm 1 mps 762 mmHg 78%
    22:00 +23°C° 0 mm 1 mps 761 mmHg 80%
    23:00 +23°C° 0 mm 1 mps 761 mmHg 82%

    19 December, Wednesday

    Time Temperature Precipitation Wind Pressure Humidity
    00:00 +23°C° 0 mm 1 mps 761 mmHg 84%
    01:00 +22°C° 0 mm 1 mps 761 mmHg 85%
    02:00 +22°C° 0 mm 1 mps 760 mmHg 87%
    03:00 +22°C° 0 mm 1 mps 760 mmHg 89%
    04:00 +21°C° 0 mm 1 mps 760 mmHg 91%
    05:00 +21°C° 0 mm 1 mps 760 mmHg 92%
    06:00 +21°C° 0 mm 1 mps 761 mmHg 94%
    07:00 +23°C° 0 mm 1 mps 761 mmHg 87%
    08:00 +25°C° 0 mm 1 mps 761 mmHg 81%
    09:00 +27°C° 0 mm 1 mps 762 mmHg 75%
    10:00 +28°C° 0.2 mm 1 mps 761 mmHg 71%
    11:00 +29°C° 0.2 mm 2 mps 760 mmHg 68%
    12:00 +31°C° 0.2 mm 2 mps 760 mmHg 64%
    13:00 +30°C° 0.5 mm 2 mps 759 mmHg 68%
    14:00 +30°C° 0.5 mm 2 mps 759 mmHg 72%
    15:00 +30°C° 0.5 mm 2 mps 758 mmHg 76%
    16:00 +28°C° 0.2 mm 2 mps 759 mmHg 81%
    17:00 +27°C° 0.2 mm 2 mps 759 mmHg 86%
    18:00 +25°C° 0.2 mm 1 mps 759 mmHg 91%
    19:00 +25°C° 0.3 mm 1 mps 760 mmHg 92%
    20:00 +24°C° 0.3 mm 1 mps 760 mmHg 94%
    21:00 +24°C° 0.3 mm 1 mps 760 mmHg 96%
    22:00 +24°C° 0.2 mm 1 mps 760 mmHg 96%
    23:00 +24°C° 0.2 mm 1 mps 760 mmHg 97%
    Show more